Weather History for Fort Worth Alliance, TX

Change the Weather History Date:

Tuesday, November 1, 2011

  Actual Average Record
Temperature  
Mean Temperature 64 °F -  
Max Temperature 75 °F 68 °F 88 °F (2012)
Min Temperature 54 °F 49 °F 32 °F (2014)
Growing Degree Days 14 (Base 50)    
Moisture  
Dew Point 48 °F    
Average Humidity 54    
Maximum Humidity 77    
Minimum Humidity 38    
Precipitation  
Precipitation 0.00 in - - ()
Sea Level Pressure  
Sea Level Pressure 30.02 in    
Wind  
Wind Speed 10 mph (South)    
Max Wind Speed 20 mph    
Max Gust Speed 28 mph    
Visibility 10 miles    
Events      
Averages and records for this station are not official NWS values.
T = Trace of Precipitation, MM = Missing Value Source: NWS Daily Summary

Daily Weather History Graph

Daily Weather History Graph

Search for Another Location

Airport:

Trip Planner

Search our weather history database for the weather conditions in past years. The results will help you decide how hot, cold, wet, or windy it might be!

Date:

Astronomy

Nov. 01, 2011 Rise Set
Actual Time 7:47 AM CDT 6:38 PM CDT
Civil Twilight 7:21 AM CDT 7:03 PM CDT
Nautical Twilight 6:52 AM CDT 7:32 PM CDT
Astronomical Twilight 6:23 AM CDT 8:01 PM CDT
Moon 1:31 PM CDT (11/1) No Moon Set
Length of Visible Light 11h 42m
Length of Day
10h 51m
Waxing Crescent, 40% of the Moon is Illuminated
Nov 1
Waxing Crescent
Nov 2
First Quarter
Nov 10
Full
Nov 18
Last Quarter
Nov 25
New

Hourly Weather History & Observations

Time (CDT) Temp. Dew Point Humidity Pressure Visibility Wind Dir Wind Speed Gust Speed Precip Events Conditions
12:53 AM 59.0 °F 46.9 °F 64% 30.06 in 10.0 mi South 8.1 mph - N/A   Clear
1:53 AM 60.1 °F 46.0 °F 60% 30.05 in 10.0 mi SSE 9.2 mph - N/A   Clear
2:53 AM 59.0 °F 46.0 °F 62% 30.06 in 10.0 mi South 8.1 mph - N/A   Clear
3:53 AM 57.9 °F 45.0 °F 62% 30.06 in 10.0 mi South 6.9 mph - N/A   Clear
4:53 AM 57.0 °F 46.0 °F 67% 30.05 in 10.0 mi SSE 9.2 mph - N/A   Clear
5:53 AM 55.9 °F 46.0 °F 69% 30.06 in 10.0 mi South 5.8 mph - N/A   Clear
6:53 AM 55.9 °F 46.9 °F 72% 30.07 in 10.0 mi South 6.9 mph - N/A   Clear
7:53 AM 54.0 °F 46.9 °F 77% 30.09 in 10.0 mi Calm Calm - N/A   Clear
8:53 AM 57.9 °F 50.0 °F 75% 30.09 in 10.0 mi South 8.1 mph - N/A   Clear
9:53 AM 64.0 °F 51.1 °F 63% 30.10 in 10.0 mi South 10.4 mph 16.1 mph N/A   Clear
10:53 AM 68.0 °F 50.0 °F 52% 30.09 in 10.0 mi SSW 11.5 mph 20.7 mph N/A   Clear
11:53 AM 71.1 °F 48.0 °F 44% 30.08 in 10.0 mi South 15.0 mph 25.3 mph N/A   Clear
12:53 PM 73.0 °F 46.9 °F 39% 30.05 in 10.0 mi South 18.4 mph 26.5 mph N/A   Clear
1:53 PM 75.0 °F 48.0 °F 38% 30.01 in 10.0 mi South 16.1 mph 24.2 mph N/A   Clear
2:53 PM 75.9 °F 50.0 °F 40% 29.99 in 10.0 mi South 9.2 mph 24.2 mph N/A   Clear
3:53 PM 75.9 °F 50.0 °F 40% 29.97 in 10.0 mi SSE 19.6 mph 25.3 mph N/A   Clear
4:53 PM 75.0 °F 52.0 °F 44% 29.96 in 10.0 mi South 12.7 mph 21.9 mph N/A   Clear
5:53 PM 73.9 °F 50.0 °F 43% 29.96 in 10.0 mi SSE 19.6 mph 25.3 mph N/A   Clear
6:53 PM 70.0 °F 50.0 °F 49% 29.96 in 10.0 mi SSE 9.2 mph - N/A   Clear
7:53 PM 69.1 °F 46.0 °F 44% 29.96 in 10.0 mi SSE 10.4 mph - N/A   Clear
8:53 PM 68.0 °F 44.1 °F 42% 29.96 in 10.0 mi SSE 10.4 mph - N/A   Clear
9:53 PM 66.0 °F 45.0 °F 47% 29.97 in 10.0 mi SSE 10.4 mph - N/A   Clear
10:53 PM 64.0 °F 48.0 °F 56% 29.97 in 10.0 mi South 8.1 mph - N/A   Clear
11:53 PM 66.0 °F 51.1 °F 59% 29.95 in 10.0 mi South 16.1 mph 27.6 mph N/A   Clear